HJ3GNC-12 Weather Reports


time (UTC)temp
C
wind
direction
speed
KPH
gust
KPH
rain 1hr
cm
rain 24hr
cm
rain mn
cm
humidity
%
barometer
mb
20260507122250 9 111 0.0 0.0 0.00 0.00 0.00 97 1020.0
20260507120701 9 111 0.0 0.0 0.00 0.00 0.00 97 1020.0
20260507115034 9 0 0.0 0.0 0.00 0.00 0.00 97 1020.0
20260507113450 10 0 0.0 0.0 0.00 0.00 0.00 97 1020.0
20260507111901 10 0 0.0 0.0 0.00 0.00 0.00 96 1020.0
20260507110313 10 70 0.0 0.0 0.00 0.00 0.00 95 1020.0
20260507104730 10 70 0.0 0.0 0.00 0.00 0.00 94 1020.0
20260507103150 10 80 0.0 0.0 0.00 0.00 0.00 93 1020.0
20260507101609 10 80 0.0 0.0 0.00 0.00 0.00 92 1020.0
20260507100029 10 102 0.0 0.0 0.00 0.00 0.00 91 1020.0
20260507094447 10 102 0.0 0.0 0.00 0.00 0.00 91 1020.0
20260507092904 10 98 0.0 0.0 0.00 0.00 0.00 91 1020.0
20260507091319 10 0 0.0 0.0 0.00 0.00 0.00 92 1020.0
20260507085734 10 350 0.0 0.0 0.00 0.00 0.00 93 1020.0
20260507084151 10 350 0.0 0.0 0.00 0.00 0.00 91 1020.0
20260507082607 10 350 0.0 0.0 0.00 0.00 0.00 91 1020.0
20260507081021 10 350 0.0 0.0 0.00 0.00 0.00 91 1020.0
20260507065136 10 60 0.0 0.0 0.00 0.00 0.00 91 1020.0
20260507063551 11 60 0.0 0.0 0.00 0.00 0.00 90 1021.0
20260507062008 11 60 0.0 0.0 0.00 0.00 0.00 89 1021.0
20260507060426 11 40 0.0 0.0 0.00 0.00 0.00 88 1021.0
20260507054844 11 40 0.0 0.0 0.00 0.00 0.00 87 1021.0
20260507053304 11 40 0.0 0.0 0.00 0.00 0.00 86 1021.0
20260507051720 11 40 0.0 0.0 0.00 0.00 0.00 85 1022.0
20260507015202 14 130 0.0 0.0 0.00 0.00 0.00 63 1021.0
20260507013617 14 130 0.0 0.0 0.00 0.00 0.00 63 1021.0
20260507012034 14 130 0.0 0.0 0.00 0.00 0.00 63 1020.0
20260506233009 15 138 0.0 0.0 0.00 0.00 0.00 85 1018.0
20260506231424 15 147 0.0 0.0 0.00 0.00 0.00 85 1017.0
20260506225821 15 147 0.0 0.0 0.00 0.00 0.00 85 1017.0
20260506224233 15 147 0.0 0.0 0.00 0.00 0.00 85 1016.0
20260506222640 15 151 0.0 0.0 0.00 0.00 0.00 85 1015.0
20260506221051 15 155 0.0 0.0 0.00 0.00 0.00 85 1015.0
20260506215457 15 155 0.0 0.0 0.00 0.00 0.00 85 1015.0
20260506213836 15 151 0.0 0.0 0.00 0.00 0.00 85 1015.0
20260506212204 15 162 0.0 0.0 0.00 0.00 0.00 85 1014.0
20260506210556 15 153 0.0 0.0 0.00 0.00 0.00 85 1014.0
20260506205007 15 162 0.0 0.0 0.00 0.00 0.00 85 1014.0
20260506203424 15 159 0.0 0.0 0.00 0.00 0.00 85 1014.0
20260506200236 15 159 0.0 0.0 0.00 0.00 0.00 85 1014.0
20260506194653 15 167 0.0 0.0 0.00 0.00 0.00 86 1014.0
20260506193108 15 167 0.0 0.0 0.00 0.00 0.00 87 1015.0
20260506191512 15 120 0.0 0.0 0.00 0.00 0.00 89 1016.0
20260506185914 15 120 0.0 0.0 0.00 0.00 0.00 91 1016.0
20260506184326 15 148 0.0 0.0 0.00 0.00 0.00 92 1016.0
20260506182742 14 148 0.0 0.0 0.00 0.00 0.00 92 1017.0
20260506181151 13 149 0.0 0.0 0.00 0.00 0.00 92 1017.0
20260506175542 14 145 0.0 0.0 0.00 0.00 0.00 92 1017.0
20260506173954 13 145 0.0 0.0 0.00 0.00 0.00 92 1018.0
20260506172409 13 122 0.0 0.0 0.00 0.00 0.00 92 1019.0
20260506170825 13 122 0.0 0.0 0.00 0.00 0.00 92 1019.0
20260506165241 13 122 0.0 0.0 0.00 0.00 0.00 92 1019.0
20260506163647 13 122 0.0 0.0 0.00 0.00 0.00 92 1019.0
20260506162039 13 101 0.0 0.0 0.00 0.00 0.00 92 1019.0
20260506160450 13 101 0.0 0.0 0.00 0.00 0.00 92 1019.0
20260506154859 13 101 0.0 0.0 0.00 0.00 0.00 93 1019.0
20260506153307 13 101 0.0 0.0 0.00 0.00 0.00 93 1019.0
20260506151634 13 99 0.0 0.0 0.00 0.00 0.00 93 1019.0
20260506135709 13 70 0.0 0.0 0.00 0.00 0.00 99 1019.0
20260506134124 11 70 0.0 0.0 0.00 0.00 0.00 98 1019.0
20260506132538 11 70 0.0 0.0 0.00 0.00 0.00 98 1020.0
20260506130954 11 0 0.0 0.0 0.00 0.00 0.00 98 1020.0
20260506125408 11 0 0.0 0.0 0.00 0.00 0.00 98 1020.0
20260506123817 11 20 0.0 0.0 0.00 0.00 0.00 98 1020.0